Location: Azalea Creek
(37.1280°N, 119.2623°W)
Time: 18:19:24
(UTC+00:00)

STARLINK-31 - Pass Details

Date: 17 February 2020
Orbit: 529 x 531 km, 53.0° (Epoch: 01 April)

Event Time Altitude Azimuth Distance (km) Brightness Sun altitude
Rises 03:27:12 0° 236° (SW) 2,652 8.0 -22.4°
Reaches altitude 10° 03:29:26 10° 240° (WSW) 1,766 7.0 -22.9°
Maximum altitude 03:33:23 59° 320° (NW) 614 3.9 -23.7°
Enters shadow 03:33:36 58° 336° (NNW) 620 3.9 -23.7°
